EHI
26 29 35 43 50 55 57 60 63 61 56 51 46 40 34 31 31 31 28 24 20 17 14 14 17 19 18 13 10 10 9 9 8 6 5 7 8 8 8 8 9 10 11
29 33 39 45 50 54 57 60 62 62 59 56 51 44 38 35 33 34 32 27 23 19 17 17 18 19 18 14 11 9 8 7 6 6 5 5 6 6 8 9 10 10 11
29 35 42 46 48 50 54 58 61 62 60 59 53 45 41 38 36 37 37 32 26 21 18 18 19 19 18 16 11 8 6 5 5 5 4 4 4 6 8 9 10 11 11
30 35 41 43 45 48 52 57 61 62 61 57 51 44 39 38 37 38 39 35 28 21 18 18 19 18 17 15 11 8 7 6 5 5 5 4 5 6 8 9 10 11 12
32 36 40 43 47 50 52 57 62 63 62 58 52 46 40 39 39 40 40 37 32 25 20 20 20 19 16 14 12 10 8 7 6 6 6 5 5 6 8 9 10 11 12
32 37 41 47 51 51 53 57 61 63 62 59 54 48 44 43 43 43 41 39 37 33 26 22 22 20 17 15 14 13 11 9 7 7 7 6 5 5 7 9 10 11 12
32 36 42 49 53 53 54 57 60 61 60 56 51 46 44 44 45 45 43 40 40 39 32 26 23 19 16 14 14 15 13 11 9 8 7 6 4 4 6 8 9 9 10
32 35 41 46 51 54 55 56 58 58 55 51 46 44 43 42 43 44 44 41 41 41 35 29 23 18 14 12 12 12 12 12 12 11 9 7 5 4 5 6 6 6 6
29 30 34 39 46 52 53 53 53 54 50 47 44 43 43 43 42 43 43 42 44 43 36 27 21 17 13 11 10 10 10 12 14 13 12 11 9 7 6 5 5 5 4
23 25 28 33 39 45 46 48 50 50 47 44 41 40 42 43 43 42 41 44 47 44 35 25 20 17 14 12 11 10 9 10 13 14 15 15 13 11 9 8 7 6 5
19 22 25 28 32 37 40 44 47 46 44 43 40 40 42 44 44 43 42 45 46 42 33 25 20 18 15 13 12 10 9 9 11 13 15 16 16 13 12 11 9 7 6
18 20 24 25 28 32 36 40 42 41 40 40 41 42 44 45 45 45 45 44 42 38 31 23 19 17 16 14 12 10 9 9 10 11 13 15 15 14 14 14 12 9 8
20 21 24 28 29 29 30 32 34 35 35 37 39 42 44 45 46 46 44 40 36 33 27 22 19 16 14 12 11 11 10 11 10 11 14 15 14 13 14 15 14 11 8
23 24 27 32 31 27 26 28 31 31 32 33 36 38 41 42 42 41 40 36 32 28 23 20 17 14 11 9 9 10 12 12 11 12 15 15 12 12 14 15 15 13 10
26 26 30 34 33 28 27 30 33 32 31 31 33 36 36 37 36 35 35 33 28 23 18 15 14 12 8 5 5 8 9 11 11 13 14 14 11 10 10 11 12 12 11
25 26 28 33 34 32 32 33 35 34 32 30 30 31 31 29 28 28 29 28 24 19 15 12 13 12 7 3 3 5 6 8 10 11 12 11 9 9 7 6 6 6 6
24 23 25 31 35 35 35 35 35 33 30 26 24 24 25 25 23 22 23 23 22 19 15 14 14 13 8 4 2 2 5 8 9 10 10 8 7 7 7 5 3 3 2
26 26 27 31 33 34 34 34 32 29 25 20 18 19 21 22 22 21 21 21 21 20 18 16 15 13 10 6 3 2 4 8 10 10 10 8 5 5 6 7 6 6 5
33 32 30 30 31 31 32 32 30 26 21 17 16 17 19 22 23 23 21 21 21 21 19 16 15 13 11 8 4 3 6 9 10 10 9 8 5 3 4 6 8 9 10
36 33 29 28 30 32 32 31 28 24 20 17 17 18 20 23 25 24 23 21 20 19 17 14 12 12 11 8 3 3 7 10 10 9 8 5 3 2 2 4 7 9 10
32 29 27 28 30 31 32 31 27 23 20 18 19 20 22 23 25 25 22 19 18 17 15 12 11 11 10 6 2 2 6 9 9 8 6 4 1 1 1 3 4 6 6
27 26 25 27 28 28 29 30 28 25 22 21 20 20 21 22 22 21 19 16 15 15 13 11 10 10 9 6 2 1 3 5 6 6 5 3 1 0 0 1 2 4 4
24 24 24 26 26 26 27 28 27 26 24 23 21 19 18 18 17 15 14 13 12 11 9 8 9 9 9 7 3 0 0 1 2 4 4 2 1 0 0 0 1 4 6
21 21 23 25 24 24 25 26 25 24 23 21 19 17 17 16 15 12 10 9 9 8 6 6 7 7 7 7 4 1 0 0 0 1 1 1 1 1 2 2 3 6 8
20 19 21 22 21 21 23 24 23 22 20 17 16 16 16 15 13 9 6 4 5 5 4 4 4 4 4 4 3 2 0 0 0 0 1 2 3 3 5 6 7 8 9
19 19 21 20 19 21 23 22 21 20 18 14 14 14 15 14 11 7 3 1 2 2 2 2 2 1 1 1 1 1 0 0 0 1 2 3 4 5 6 7 8 9 9
Wind_Speed
9 11 11 11 11 10 9 8 7 6 4 4 4 3 3 2 3 3 3 3 2 2 1 1 1 0 1 1 1 0 1 1 1 1 1 1 2 2 2 1 1 2 3
8 10 11 11 11 10 9 8 7 7 6 4 3 3 3 2 3 2 3 3 2 1 2 1 0 1 1 0 0 0 1 1 1 1 1 1 0 0 2 2 2 2 2
10 9 10 10 11 11 10 9 8 8 7 6 4 3 2 2 3 3 3 3 3 2 1 1 0 0 1 1 1 1 1 1 1 1 0 0 1 1 1 1 1 1 1
11 9 9 10 10 10 10 8 8 8 6 6 5 5 4 3 3 3 3 3 3 3 3 2 1 0 0 0 1 0 1 2 2 1 1 0 0 1 1 0 1 1 2
9 9 8 9 9 9 10 9 8 7 7 6 5 5 4 3 3 3 4 3 3 3 3 3 1 1 0 0 1 1 1 1 2 1 1 1 1 1 1 1 0 0 1
7 7 7 7 7 8 9 9 8 7 7 6 6 5 4 3 4 4 4 3 2 2 2 3 2 1 1 1 1 1 1 1 2 2 0 0 1 1 0 1 1 1 1
7 7 7 6 7 8 8 8 8 7 7 6 5 4 4 4 4 4 3 3 2 2 2 2 2 1 1 1 1 1 1 1 2 2 1 1 1 1 1 1 1 1 1
7 6 6 6 7 7 7 8 8 7 7 6 4 4 4 3 3 3 3 2 2 2 3 2 2 1 1 1 1 1 1 1 1 2 1 1 1 1 1 1 1 1 1
6 5 4 5 5 6 6 7 8 7 6 6 5 4 3 3 3 3 2 2 2 3 3 2 2 2 1 1 1 1 0 0 1 1 1 1 1 1 1 1 1 1 1
6 6 4 4 5 6 6 6 6 6 6 5 4 4 4 3 2 2 2 2 2 2 3 2 2 2 2 1 1 1 1 1 1 1 1 1 1 1 1 1 1 1 1
6 6 6 4 3 5 6 5 6 6 5 5 4 4 4 3 3 2 2 2 2 2 2 2 2 2 1 1 1 1 1 1 0 1 0 1 1 1 1 1 1 1 1
5 6 6 6 4 5 6 5 5 6 5 4 4 4 4 3 3 3 2 2 2 2 2 2 2 3 2 2 1 1 1 1 0 1 1 1 1 1 1 1 1 1 1
4 5 5 5 4 4 4 6 5 5 5 5 5 4 3 3 3 2 2 2 2 2 2 2 2 2 1 1 1 1 0 0 0 0 0 1 1 1 1 1 1 1 2
4 4 4 4 4 4 2 4 4 4 4 4 4 4 2 2 2 3 2 2 2 2 2 2 1 1 1 0 0 1 1 1 0 0 0 0 0 1 1 1 1 1 1
3 4 4 4 4 4 3 3 3 3 3 4 4 4 3 2 2 2 2 2 2 2 1 1 1 1 1 0 0 1 1 1 1 0 0 0 1 1 0 1 1 1 1
3 3 4 5 4 4 3 3 3 3 2 3 3 4 3 3 2 2 2 2 1 1 1 1 1 1 0 2 2 1 0 0 1 1 1 2 2 2 2 1 0 1 1
3 2 2 3 3 3 2 3 3 3 2 3 3 4 4 4 3 3 2 2 1 1 1 1 1 1 1 1 2 1 1 1 1 1 1 2 1 2 1 1 2 2 2
3 2 2 3 3 2 2 2 3 3 3 3 3 3 3 3 3 3 2 2 2 2 1 1 1 2 2 2 1 2 2 2 2 2 2 1 0 0 1 2 1 1 0
3 2 2 2 3 3 2 2 3 3 2 3 3 3 3 3 3 3 3 2 2 1 1 1 1 2 2 3 2 2 3 2 2 2 1 1 2 1 1 1 1 1 0
3 2 2 2 2 2 2 3 3 3 2 2 2 2 2 2 3 3 2 2 2 2 1 1 1 1 2 3 3 2 3 2 2 2 2 2 2 2 2 2 1 1 1
2 2 2 1 2 2 2 2 2 2 2 1 2 2 1 1 2 2 2 1 1 1 1 1 1 1 2 3 3 3 2 2 2 2 2 1 2 3 3 3 3 3 2
1 2 2 1 1 2 2 2 2 1 1 2 2 1 1 1 1 2 2 1 1 1 1 1 1 1 2 2 3 3 3 3 2 2 1 1 3 4 5 4 4 4 3
1 1 2 2 1 1 1 2 2 2 1 1 2 1 1 1 1 2 2 2 2 2 2 2 1 1 1 2 2 3 3 3 2 2 2 2 4 5 5 7 6 4 3
2 1 2 2 1 1 1 2 2 1 1 1 1 1 1 1 1 1 1 1 1 1 1 1 0 0 1 1 0 1 2 3 3 3 3 4 5 5 4 4 4 3 3
1 1 1 1 1 1 1 2 2 2 2 1 1 1 1 2 1 1 1 1 1 1 0 1 1 0 1 1 1 1 1 2 1 2 3 4 3 3 3 3 3 3 2
2 1 1 1 1 1 1 1 2 2 2 2 1 1 1 1 2 2 1 3 2 3 3 3 2 1 2 1 1 1 2 3 3 2 4 4 4 4 3 3 2 2 2
Wind_Direction
170 159 158 157 155 150 153 155 160 157 158 160 169 164 167 163 148 137 130 128 124 126 112 72 120 90 108 124 120 73 276 269 263 276 284 234 197 187 175 193 188 196 191
164 161 160 162 159 159 161 161 163 164 169 163 170 170 165 169 147 130 140 146 148 142 137 117 92 100 102 125 264 241 233 256 228 228 253 228 212 292 192 182 187 200 187
162 161 162 163 165 168 170 172 168 167 173 167 171 171 152 164 147 151 152 152 146 139 119 131 120 259 182 178 236 246 264 266 275 241 210 176 194 194 191 198 182 171 185
156 163 166 167 169 169 169 166 163 165 169 172 176 179 179 178 172 159 151 155 166 161 158 145 156 250 256 174 249 204 285 276 275 272 256 260 148 180 191 233 201 189 175
154 159 170 171 171 168 167 162 157 165 169 180 182 190 186 173 156 148 147 161 165 168 164 154 167 168 138 182 308 322 301 288 280 278 283 286 258 238 194 214 225 227 188
152 155 156 154 161 163 164 159 158 164 170 180 184 198 190 172 160 156 160 175 167 165 163 147 148 155 156 191 233 259 275 293 296 294 283 285 302 260 199 229 226 216 225
139 141 145 156 159 158 155 155 158 164 171 179 183 185 188 180 170 168 176 185 168 152 153 145 147 166 165 173 206 237 265 267 291 293 289 292 286 299 259 231 240 237 219
136 136 143 153 155 154 152 154 157 162 168 172 172 170 182 188 178 180 177 183 164 147 143 141 157 173 179 201 216 237 221 212 269 278 279 283 282 280 264 244 248 265 245
119 120 134 137 138 146 148 153 154 156 164 165 161 157 165 182 168 163 179 168 151 145 139 150 161 167 168 200 222 245 242 180 232 263 272 274 270 277 281 284 264 248 265
132 128 133 131 129 135 136 139 138 147 152 151 164 166 169 174 157 166 160 136 125 121 151 164 165 173 175 195 225 240 193 192 229 242 301 306 299 297 292 291 293 268 255
131 135 133 120 134 136 133 130 134 137 148 156 156 150 159 159 167 162 146 140 138 151 166 168 173 188 182 190 219 251 212 215 259 286 231 245 269 308 318 314 312 305 292
124 135 135 142 154 142 139 133 134 146 151 148 146 149 151 156 168 158 149 147 155 173 186 185 191 201 187 189 208 246 253 195 199 289 302 293 282 290 302 313 317 312 296
120 121 127 129 113 97 126 139 143 148 148 146 148 141 158 162 157 150 152 165 172 181 191 201 206 211 190 192 199 185 250 240 214 225 263 293 313 315 318 319 316 309 312
113 117 117 118 119 125 141 143 153 149 150 148 148 147 156 149 152 157 158 167 187 189 191 202 205 205 208 202 214 194 208 222 242 337 23 14 41 316 314 297 307 320 315
119 123 125 126 131 137 140 145 149 146 148 152 149 148 149 142 145 158 166 172 191 191 187 192 204 201 219 249 279 235 184 212 213 196 189 173 140 113 53 357 6 351 328
123 122 132 131 136 136 150 154 123 118 135 151 150 146 153 159 159 163 166 166 166 167 188 200 196 207 312 51 70 43 327 275 249 244 232 207 169 163 176 207 219 229 248
94 106 121 134 131 132 138 131 133 132 151 156 159 161 164 170 171 175 173 169 170 200 220 207 152 142 135 62 51 26 240 252 254 274 277 274 187 140 204 238 221 225 238
90 92 94 104 114 114 110 141 147 138 155 160 168 166 166 172 171 173 178 182 186 206 226 217 186 180 179 189 213 274 218 236 245 239 243 236 204 256 281 239 207 209 232
87 83 87 113 114 126 131 152 151 149 148 157 167 162 170 174 173 174 179 187 187 208 232 226 196 191 186 192 211 254 239 224 238 232 246 225 175 229 256 235 224 210 227
78 80 80 113 122 130 148 168 161 145 147 156 160 155 161 174 169 161 172 178 185 213 227 227 203 191 187 186 199 236 254 231 226 214 198 181 189 197 211 226 225 218 246
77 93 106 125 135 147 166 167 163 165 169 165 150 134 126 159 154 140 152 182 204 206 216 223 200 187 164 164 180 210 251 271 254 228 203 190 191 209 228 236 229 222 238
103 119 120 135 148 157 172 165 166 170 175 170 152 143 148 196 155 137 160 195 185 185 222 229 221 170 151 155 182 202 233 278 291 289 274 185 204 217 226 230 233 237 244
136 125 143 143 150 153 171 174 153 150 166 171 160 160 168 164 169 177 183 201 187 213 220 220 225 201 150 144 179 212 241 265 265 288 285 255 227 229 227 225 227 225 222
130 127 139 148 150 155 171 150 142 149 165 180 174 178 168 170 184 189 202 199 211 241 224 214 228 162 105 95 94 237 235 244 242 257 255 245 230 230 239 228 215 212 216
115 117 115 155 174 152 137 157 155 153 159 180 180 199 194 173 133 64 30 49 39 31 65 14 23 55 50 23 328 299 292 293 294 280 247 232 210 210 212 207 203 203 209
126 118 127 135 171 185 173 155 156 162 169 198 191 217 206 174 170 156 96 44 78 106 112 116 120 84 110 161 309 325 305 294 289 269 252 235 222 221 218 209 203 201 201